Time,TemperatureF,DewpointF,PressureIn,WindDirection,WindDirectionDegrees,WindSpeedMPH,WindSpeedGustMPH,Humidity,HourlyPrecipIn,Conditions,Clouds,dailyrainin,SoftwareType,DateUTC
2013-02-16 00:02:00,41.0,30.0,30.16,North,10,3.0,-999.0,65,-99.99,,,0.00,,2013-02-16 06:02:00,
2013-02-16 00:11:00,41.0,30.0,30.16,North,10,3.0,-999.0,65,-99.99,,,0.00,,2013-02-16 06:11:00,
2013-02-16 00:21:00,40.0,28.0,30.15,NNW,340,5.0,-999.0,62,-99.99,,,0.00,,2013-02-16 06:21:00,
2013-02-16 00:32:00,40.0,28.0,30.15,NNW,339,2.0,-999.0,63,-99.99,,,0.00,,2013-02-16 06:32:00,
2013-02-16 00:42:00,40.0,28.0,30.15,NNW,339,2.0,-999.0,63,-99.99,,,0.00,,2013-02-16 06:42:00,
2013-02-16 00:51:00,40.0,28.0,30.15,NW,314,4.0,-999.0,62,-99.99,,,0.00,,2013-02-16 06:51:00,
2013-02-16 01:02:00,39.0,27.0,30.15,NNW,332,3.0,-999.0,63,-99.99,,,0.00,,2013-02-16 07:02:00,
2013-02-16 01:11:00,39.0,27.0,30.15,NNW,332,3.0,-999.0,63,-99.99,,,0.00,,2013-02-16 07:11:00,
2013-02-16 01:21:00,39.0,28.0,30.15,NNW,330,2.0,-999.0,64,-99.99,,,0.00,,2013-02-16 07:21:00,
2013-02-16 01:31:00,39.0,27.0,30.14,NW,311,3.0,-999.0,62,-99.99,,,0.00,,2013-02-16 07:31:00,
2013-02-16 01:42:00,39.0,27.0,30.14,NW,311,3.0,-999.0,62,-99.99,,,0.00,,2013-02-16 07:42:00,
2013-02-16 01:53:00,38.0,26.0,30.14,NW,318,3.0,-999.0,61,-99.99,,,0.00,,2013-02-16 07:53:00,
2013-02-16 02:01:00,38.0,26.0,30.14,NW,314,3.0,-999.0,61,-99.99,,,0.00,,2013-02-16 08:01:00,
2013-02-16 02:11:00,38.0,26.0,30.14,NW,314,3.0,-999.0,61,-99.99,,,0.00,,2013-02-16 08:11:00,
2013-02-16 02:21:00,37.0,25.0,30.13,NNE,12,5.0,-999.0,61,-99.99,,,0.00,,2013-02-16 08:21:00,
2013-02-16 02:31:00,37.0,25.0,30.14,NE,35,5.0,-999.0,62,-99.99,,,0.00,,2013-02-16 08:31:00,
2013-02-16 02:41:00,37.0,25.0,30.14,NE,35,5.0,-999.0,62,-99.99,,,0.00,,2013-02-16 08:41:00,
2013-02-16 02:52:00,36.0,25.0,30.14,North,359,4.0,-999.0,64,-99.99,,,0.00,,2013-02-16 08:52:00,
2013-02-16 03:01:00,36.0,25.0,30.14,North,4,3.0,-999.0,64,-99.99,,,0.00,,2013-02-16 09:01:00,
2013-02-16 03:11:00,36.0,25.0,30.14,North,4,3.0,-999.0,64,-99.99,,,0.00,,2013-02-16 09:11:00,
2013-02-16 03:21:00,36.0,25.0,30.14,NNE,22,3.0,-999.0,65,-99.99,,,0.00,,2013-02-16 09:21:00,
2013-02-16 03:31:00,35.0,24.0,30.14,NNW,332,2.0,-999.0,65,-99.99,,,0.00,,2013-02-16 09:31:00,
2013-02-16 03:42:00,35.0,24.0,30.14,NNW,332,2.0,-999.0,65,-99.99,,,0.00,,2013-02-16 09:42:00,
2013-02-16 03:52:00,35.0,25.0,30.14,NW,324,3.0,-999.0,66,-99.99,,,0.00,,2013-02-16 09:52:00,
2013-02-16 04:01:00,34.0,25.0,30.14,WNW,296,4.0,-999.0,68,-99.99,,,0.00,,2013-02-16 10:01:00,
2013-02-16 04:11:00,34.0,25.0,30.14,WNW,296,4.0,-999.0,68,-99.99,,,0.00,,2013-02-16 10:11:00,
2013-02-16 04:21:00,34.0,24.0,30.14,North,11,2.0,-999.0,67,-99.99,,,0.00,,2013-02-16 10:21:00,
2013-02-16 04:31:00,34.0,24.0,30.14,NNW,329,5.0,-999.0,67,-99.99,,,0.00,,2013-02-16 10:31:00,
2013-02-16 04:41:00,34.0,24.0,30.14,NNW,329,5.0,-999.0,67,-99.99,,,0.00,,2013-02-16 10:41:00,
2013-02-16 04:52:00,34.0,24.0,30.16,NNW,339,5.0,-999.0,66,-99.99,,,0.00,,2013-02-16 10:52:00,
2013-02-16 05:02:00,33.0,23.0,30.15,NW,313,4.0,-999.0,66,-99.99,,,0.00,,2013-02-16 11:02:00,
2013-02-16 05:11:00,33.0,23.0,30.15,NW,313,4.0,-999.0,66,-99.99,,,0.00,,2013-02-16 11:11:00,
2013-02-16 05:22:00,33.0,23.0,30.15,NNW,330,6.0,-999.0,66,-99.99,,,0.00,,2013-02-16 11:22:00,
2013-02-16 05:32:00,33.0,23.0,30.15,NW,318,5.0,-999.0,67,-99.99,,,0.00,,2013-02-16 11:32:00,
2013-02-16 05:42:00,33.0,23.0,30.15,NW,318,5.0,-999.0,67,-99.99,,,0.00,,2013-02-16 11:42:00,
2013-02-16 05:52:00,32.0,23.0,30.15,NNW,341,2.0,-999.0,68,-99.99,,,0.00,,2013-02-16 11:52:00,
2013-02-16 06:01:00,32.0,23.0,30.14,NNE,18,1.0,-999.0,69,-99.99,,,0.00,,2013-02-16 12:01:00,
2013-02-16 06:12:00,32.0,23.0,30.14,NNE,18,1.0,-999.0,69,-99.99,,,0.00,,2013-02-16 12:12:00,
2013-02-16 06:22:00,31.0,23.0,30.15,NW,318,1.0,-999.0,73,-99.99,,,0.00,,2013-02-16 12:22:00,
2013-02-16 06:32:00,31.0,24.0,30.16,NW,309,2.0,-999.0,74,-99.99,,,0.00,,2013-02-16 12:32:00,
2013-02-16 06:42:00,31.0,24.0,30.16,NW,309,2.0,-999.0,74,-99.99,,,0.00,,2013-02-16 12:42:00,
2013-02-16 06:52:00,30.0,23.0,30.16,West,270,1.0,-999.0,75,-99.99,,,0.00,,2013-02-16 12:52:00,
2013-02-16 07:02:00,30.0,22.0,30.17,NW,319,3.0,-999.0,73,-99.99,,,0.00,,2013-02-16 13:02:00,
2013-02-16 07:11:00,30.0,23.0,30.17,NNW,330,2.0,-999.0,74,-99.99,,,0.00,,2013-02-16 13:11:00,
2013-02-16 07:21:00,30.0,23.0,30.17,NNW,330,2.0,-999.0,74,-99.99,,,0.00,,2013-02-16 13:21:00,
2013-02-16 07:31:00,31.0,24.0,30.17,NW,315,3.0,-999.0,74,-99.99,,,0.00,,2013-02-16 13:31:00,
2013-02-16 07:41:00,31.0,24.0,30.17,NW,315,3.0,-999.0,74,-99.99,,,0.00,,2013-02-16 13:41:00,
2013-02-16 07:51:00,32.0,24.0,30.18,NW,318,4.0,-999.0,71,-99.99,,,0.00,,2013-02-16 13:51:00,
2013-02-16 08:01:00,32.0,23.0,30.18,NNW,328,5.0,-999.0,69,-99.99,,,0.00,,2013-02-16 14:01:00,
2013-02-16 08:11:00,32.0,23.0,30.18,NNW,328,5.0,-999.0,69,-99.99,,,0.00,,2013-02-16 14:11:00,
2013-02-16 08:21:00,33.0,23.0,30.19,North,349,5.0,-999.0,66,-99.99,,,0.00,,2013-02-16 14:21:00,
2013-02-16 08:32:00,33.0,23.0,30.19,NNW,339,5.0,-999.0,66,-99.99,,,0.00,,2013-02-16 14:32:00,
2013-02-16 08:41:00,33.0,23.0,30.19,NNW,339,5.0,-999.0,66,-99.99,,,0.00,,2013-02-16 14:41:00,
2013-02-16 08:52:00,34.0,23.0,30.19,NW,313,6.0,-999.0,64,-99.99,,,0.00,,2013-02-16 14:52:00,
2013-02-16 09:01:00,34.0,22.0,30.19,North,349,6.0,-999.0,60,-99.99,,,0.00,,2013-02-16 15:01:00,
2013-02-16 09:11:00,34.0,22.0,30.19,North,349,6.0,-999.0,60,-99.99,,,0.00,,2013-02-16 15:11:00,
2013-02-16 09:21:00,35.0,21.0,30.19,WNW,302,6.0,-999.0,57,-99.99,,,0.00,,2013-02-16 15:21:00,
2013-02-16 09:32:00,36.0,21.0,30.19,NW,315,7.0,-999.0,54,-99.99,,,0.00,,2013-02-16 15:32:00,
2013-02-16 09:42:00,36.0,21.0,30.19,NW,315,7.0,-999.0,54,-99.99,,,0.00,,2013-02-16 15:42:00,
2013-02-16 09:52:00,37.0,21.0,30.20,NNW,342,6.0,-999.0,51,-99.99,,,0.00,,2013-02-16 15:52:00,
2013-02-16 10:01:00,37.0,21.0,30.20,West,281,6.0,-999.0,52,-99.99,,,0.00,,2013-02-16 16:01:00,
2013-02-16 10:11:00,37.0,21.0,30.20,West,281,6.0,-999.0,52,-99.99,,,0.00,,2013-02-16 16:11:00,
2013-02-16 10:21:00,38.0,19.0,30.20,NNE,17,8.0,-999.0,45,-99.99,,,0.00,,2013-02-16 16:21:00,
2013-02-16 10:32:00,39.0,19.0,30.20,NNE,14,5.0,-999.0,44,-99.99,,,0.00,,2013-02-16 16:32:00,
2013-02-16 10:41:00,39.0,19.0,30.20,NNE,14,5.0,-999.0,44,-99.99,,,0.00,,2013-02-16 16:41:00,
2013-02-16 10:52:00,37.0,18.0,30.20,NNW,333,8.0,-999.0,46,-99.99,,,0.00,,2013-02-16 16:52:00,
2013-02-16 11:01:00,38.0,18.0,30.19,WNW,293,10.0,-999.0,44,-99.99,,,0.00,,2013-02-16 17:01:00,
2013-02-16 11:11:00,38.0,18.0,30.19,WNW,293,10.0,-999.0,44,-99.99,,,0.00,,2013-02-16 17:11:00,
2013-02-16 11:21:00,39.0,18.0,30.20,NW,324,8.0,-999.0,43,-99.99,,,0.00,,2013-02-16 17:21:00,
2013-02-16 11:32:00,39.0,18.0,30.20,NW,310,8.0,-999.0,42,-99.99,,,0.00,,2013-02-16 17:32:00,
2013-02-16 11:42:00,39.0,18.0,30.20,NW,310,8.0,-999.0,42,-99.99,,,0.00,,2013-02-16 17:42:00,
2013-02-16 11:52:00,38.0,16.0,30.20,NW,318,11.0,-999.0,40,-99.99,,,0.00,,2013-02-16 17:52:00,
2013-02-16 12:02:00,39.0,17.0,30.19,WNW,299,6.0,-999.0,41,-99.99,,,0.00,,2013-02-16 18:02:00,
2013-02-16 12:11:00,39.0,18.0,30.19,West,273,7.0,-999.0,43,-99.99,,,0.00,,2013-02-16 18:11:00,
2013-02-16 12:21:00,39.0,18.0,30.19,West,273,7.0,-999.0,43,-99.99,,,0.00,,2013-02-16 18:21:00,
2013-02-16 12:33:00,40.0,18.0,30.17,West,274,8.0,-999.0,41,-99.99,,,0.00,,2013-02-16 18:33:00,
2013-02-16 12:42:00,40.0,18.0,30.17,West,274,8.0,-999.0,41,-99.99,,,0.00,,2013-02-16 18:42:00,
2013-02-16 12:52:00,41.0,20.0,30.17,West,280,6.0,-999.0,42,-99.99,,,0.00,,2013-02-16 18:52:00,
2013-02-16 13:02:00,41.0,17.0,30.16,NNW,341,8.0,-999.0,38,-99.99,,,0.00,,2013-02-16 19:02:00,
2013-02-16 13:11:00,41.0,17.0,30.16,NNW,341,8.0,-999.0,38,-99.99,,,0.00,,2013-02-16 19:11:00,
2013-02-16 13:21:00,41.0,18.0,30.16,NNW,347,6.0,-999.0,39,-99.99,,,0.00,,2013-02-16 19:21:00,
2013-02-16 13:31:00,41.0,19.0,30.16,NW,314,6.0,-999.0,40,-99.99,,,0.00,,2013-02-16 19:31:00,
2013-02-16 13:42:00,41.0,19.0,30.16,NW,314,6.0,-999.0,40,-99.99,,,0.00,,2013-02-16 19:42:00,
2013-02-16 13:52:00,40.0,18.0,30.16,NW,308,7.0,-999.0,40,-99.99,,,0.00,,2013-02-16 19:52:00,
2013-02-16 14:01:00,40.0,18.0,30.15,NW,321,8.0,-999.0,41,-99.99,,,0.00,,2013-02-16 20:01:00,
2013-02-16 14:11:00,40.0,19.0,30.15,West,265,5.0,-999.0,42,-99.99,,,0.00,,2013-02-16 20:11:00,
2013-02-16 14:21:00,40.0,19.0,30.15,West,265,5.0,-999.0,42,-99.99,,,0.00,,2013-02-16 20:21:00,
2013-02-16 14:32:00,40.0,20.0,30.15,West,280,7.0,-999.0,44,-99.99,,,0.00,,2013-02-16 20:32:00,
2013-02-16 14:42:00,40.0,20.0,30.15,West,280,7.0,-999.0,44,-99.99,,,0.00,,2013-02-16 20:42:00,
2013-02-16 14:52:00,41.0,19.0,30.16,NNW,327,7.0,-999.0,40,-99.99,,,0.00,,2013-02-16 20:52:00,
2013-02-16 15:02:00,40.0,19.0,30.16,NNW,335,5.0,-999.0,42,-99.99,,,0.00,,2013-02-16 21:02:00,
2013-02-16 15:11:00,40.0,19.0,30.16,NNW,335,5.0,-999.0,42,-99.99,,,0.00,,2013-02-16 21:11:00,
2013-02-16 15:21:00,39.0,19.0,30.16,NNW,335,7.0,-999.0,44,-99.99,,,0.00,,2013-02-16 21:21:00,
2013-02-16 15:31:00,40.0,20.0,30.16,SW,232,4.0,-999.0,45,-99.99,,,0.00,,2013-02-16 21:31:00,
2013-02-16 15:41:00,40.0,20.0,30.16,SW,232,4.0,-999.0,45,-99.99,,,0.00,,2013-02-16 21:41:00,
2013-02-16 15:52:00,40.0,22.0,30.17,NW,312,8.0,-999.0,48,-99.99,,,0.00,,2013-02-16 21:52:00,
2013-02-16 16:01:00,39.0,22.0,30.16,WNW,283,7.0,-999.0,50,-99.99,,,0.00,,2013-02-16 22:01:00,
2013-02-16 16:11:00,39.0,22.0,30.16,WNW,283,7.0,-999.0,50,-99.99,,,0.00,,2013-02-16 22:11:00,
2013-02-16 16:21:00,39.0,20.0,30.17,NNW,334,5.0,-999.0,46,-99.99,,,0.00,,2013-02-16 22:21:00,
2013-02-16 16:32:00,37.0,24.0,30.19,South,188,7.0,-999.0,60,-99.99,,,0.00,,2013-02-16 22:32:00,
2013-02-16 16:42:00,37.0,24.0,30.19,South,188,7.0,-999.0,60,-99.99,,,0.00,,2013-02-16 22:42:00,
2013-02-16 16:51:00,37.0,23.0,30.18,WSW,241,4.0,-999.0,57,-99.99,,,0.00,,2013-02-16 22:51:00,
2013-02-16 17:02:00,37.0,21.0,30.18,WSW,250,4.0,-999.0,52,-99.99,,,0.00,,2013-02-16 23:02:00,
2013-02-16 17:11:00,37.0,22.0,30.18,SW,231,4.0,-999.0,54,-99.99,,,0.00,,2013-02-16 23:11:00,
2013-02-16 17:21:00,37.0,22.0,30.18,SW,231,4.0,-999.0,54,-99.99,,,0.00,,2013-02-16 23:21:00,
2013-02-16 17:31:00,37.0,22.0,30.18,WSW,247,3.0,-999.0,54,-99.99,,,0.00,,2013-02-16 23:31:00,
2013-02-16 17:42:00,37.0,22.0,30.18,WSW,247,3.0,-999.0,54,-99.99,,,0.00,,2013-02-16 23:42:00,
2013-02-16 17:52:00,36.0,21.0,30.19,NNE,19,3.0,-999.0,54,-99.99,,,0.00,,2013-02-16 23:52:00,
2013-02-16 18:02:00,36.0,21.0,30.19,NW,312,3.0,-999.0,53,-99.99,,,0.00,,2013-02-17 00:02:00,
2013-02-16 18:12:00,36.0,21.0,30.19,NW,312,3.0,-999.0,53,-99.99,,,0.00,,2013-02-17 00:12:00,
2013-02-16 18:21:00,36.0,22.0,30.19,NW,316,2.0,-999.0,56,-99.99,,,0.00,,2013-02-17 00:21:00,
2013-02-16 18:31:00,35.0,22.0,30.20,WNW,303,0.0,-999.0,59,-99.99,,,0.00,,2013-02-17 00:31:00,
2013-02-16 18:41:00,35.0,22.0,30.20,WNW,303,0.0,-999.0,59,-99.99,,,0.00,,2013-02-17 00:41:00,
2013-02-16 18:51:00,35.0,20.0,30.21,WNW,301,3.0,-999.0,53,-99.99,,,0.00,,2013-02-17 00:51:00,
2013-02-16 19:01:00,34.0,19.0,30.22,NW,320,3.0,-999.0,53,-99.99,,,0.00,,2013-02-17 01:01:00,
2013-02-16 19:11:00,34.0,19.0,30.22,NW,320,3.0,-999.0,53,-99.99,,,0.00,,2013-02-17 01:11:00,
2013-02-16 19:21:00,35.0,16.0,30.22,NNW,328,4.0,-999.0,46,-99.99,,,0.00,,2013-02-17 01:21:00,
2013-02-16 19:31:00,35.0,16.0,30.22,WNW,291,4.0,-999.0,46,-99.99,,,0.00,,2013-02-17 01:31:00,
2013-02-16 19:41:00,35.0,16.0,30.22,WNW,291,4.0,-999.0,46,-99.99,,,0.00,,2013-02-17 01:41:00,
2013-02-16 19:52:00,34.0,16.0,30.23,NW,308,2.0,-999.0,48,-99.99,,,0.00,,2013-02-17 01:52:00,
2013-02-16 20:01:00,34.0,16.0,30.24,NW,321,4.0,-999.0,48,-99.99,,,0.00,,2013-02-17 02:01:00,
2013-02-16 20:11:00,34.0,16.0,30.24,NW,321,4.0,-999.0,48,-99.99,,,0.00,,2013-02-17 02:11:00,
2013-02-16 20:21:00,33.0,16.0,30.24,NW,324,2.0,-999.0,50,-99.99,,,0.00,,2013-02-17 02:21:00,
2013-02-16 20:31:00,33.0,17.0,30.24,NW,308,2.0,-999.0,51,-99.99,,,0.00,,2013-02-17 02:31:00,
2013-02-16 20:41:00,33.0,17.0,30.24,NW,308,2.0,-999.0,51,-99.99,,,0.00,,2013-02-17 02:41:00,
2013-02-16 20:52:00,33.0,16.0,30.25,NW,310,3.0,-999.0,50,-99.99,,,0.00,,2013-02-17 02:52:00,
2013-02-16 21:01:00,33.0,16.0,30.25,NW,305,3.0,-999.0,50,-99.99,,,0.00,,2013-02-17 03:01:00,
2013-02-16 21:11:00,33.0,16.0,30.25,NW,305,3.0,-999.0,50,-99.99,,,0.00,,2013-02-17 03:11:00,
2013-02-16 21:21:00,32.0,17.0,30.26,NW,315,1.0,-999.0,53,-99.99,,,0.00,,2013-02-17 03:21:00,
2013-02-16 21:31:00,31.0,16.0,30.26,NW,315,1.0,-999.0,54,-99.99,,,0.00,,2013-02-17 03:31:00,
2013-02-16 21:42:00,31.0,16.0,30.26,NW,315,1.0,-999.0,54,-99.99,,,0.00,,2013-02-17 03:42:00,
2013-02-16 21:52:00,31.0,17.0,30.26,NNW,328,2.0,-999.0,56,-99.99,,,0.00,,2013-02-17 03:52:00,
2013-02-16 22:01:00,30.0,17.0,30.27,WNW,299,0.0,-999.0,57,-99.99,,,0.00,,2013-02-17 04:01:00,
2013-02-16 22:11:00,30.0,17.0,30.27,WNW,299,2.0,-999.0,57,-99.99,,,0.00,,2013-02-17 04:11:00,
2013-02-16 22:21:00,30.0,17.0,30.27,WNW,299,2.0,-999.0,57,-99.99,,,0.00,,2013-02-17 04:21:00,
2013-02-16 22:31:00,30.0,17.0,30.27,NW,318,1.0,-999.0,57,-99.99,,,0.00,,2013-02-17 04:31:00,
2013-02-16 22:41:00,30.0,17.0,30.27,NW,318,1.0,-999.0,57,-99.99,,,0.00,,2013-02-17 04:41:00,
2013-02-16 22:52:00,30.0,17.0,30.27,NW,312,2.0,-999.0,58,-99.99,,,0.00,,2013-02-17 04:52:00,
2013-02-16 23:01:00,30.0,16.0,30.27,NW,315,3.0,-999.0,56,-99.99,,,0.00,,2013-02-17 05:01:00,
2013-02-16 23:12:00,30.0,18.0,30.27,NW,312,1.0,-999.0,61,-99.99,,,0.00,,2013-02-17 05:12:00,
2013-02-16 23:22:00,30.0,18.0,30.27,NW,312,1.0,-999.0,61,-99.99,,,0.00,,2013-02-17 05:22:00,
2013-02-16 23:32:00,30.0,17.0,30.28,WNW,297,2.0,-999.0,57,-99.99,,,0.00,,2013-02-17 05:32:00,
2013-02-16 23:42:00,30.0,17.0,30.28,WNW,297,2.0,-999.0,57,-99.99,,,0.00,,2013-02-17 05:42:00,
2013-02-16 23:52:00,29.0,16.0,30.28,WNW,297,1.0,-999.0,59,-99.99,,,0.00,,2013-02-17 05:52:00,